Wetbulb
47.40 43.68 41.55 45.13 46.74 45.78 44.39 42.84 41.98 44.43 47.26 45.58 44.01 43.81 45.73 48.50 48.93 48.88 49.79 50.33 50.24 49.97 50.48 50.17 49.38 49.21 49.01 49.30 49.34 50.51 51.48 52.95 53.36 54.96 55.95 57.05 57.16 58.37 58.62 59.19 58.96 58.14 56.95 54.89
43.18 40.82 46.07 47.46 44.79 43.68 43.24 41.43 41.35 44.52 46.61 42.88 43.16 43.11 45.69 47.86 47.97 49.57 48.68 48.81 48.58 48.81 47.83 47.19 46.75 46.65 46.10 45.67 46.44 47.48 48.69 50.58 51.34 53.02 54.70 55.50 55.99 57.05 57.25 57.36 57.15 56.79 56.02 54.05
42.43 45.96 46.78 44.67 43.76 42.05 42.43 40.72 40.97 40.92 43.58 44.57 43.36 41.94 45.96 48.22 49.73 50.02 48.45 48.24 47.71 45.71 45.01 45.18 45.02 44.85 44.94 44.26 44.64 45.38 46.35 48.00 49.46 50.96 52.40 53.08 53.70 51.16 52.36 53.72 54.52 54.33 54.33 53.61
44.29 46.46 43.04 42.60 40.99 42.89 39.11 44.83 42.52 40.99 39.33 37.21 42.94 34.19 42.38 46.44 47.07 45.95 46.06 46.28 44.88 44.60 44.70 44.38 43.71 43.21 43.31 43.70 44.82 45.16 45.25 45.57 46.51 48.46 49.43 49.49 49.04 47.28 49.53 49.73 51.70 51.97 52.22 52.15
42.21 41.36 40.32 40.52 42.03 43.92 41.52 42.13 41.13 40.83 39.18 39.06 39.92 37.96 41.57 45.45 43.81 45.11 44.54 44.00 43.97 43.89 43.21 42.78 42.96 43.10 43.38 43.70 44.09 44.71 43.99 43.61 44.45 45.72 46.28 46.58 46.28 47.77 49.13 48.52 47.52 49.16 49.67 49.77
42.90 43.13 42.51 43.32 43.39 42.96 41.99 40.68 41.08 41.03 39.38 33.48 39.96 38.73 39.15 41.26 42.37 41.80 42.43 42.34 42.70 42.77 42.91 42.82 43.23 43.00 42.15 43.31 42.92 43.66 42.98 42.57 43.45 43.21 43.46 43.60 43.79 44.46 45.27 46.55 45.52 46.69 47.46 47.90
43.80 43.25 43.31 42.16 40.42 41.85 39.80 38.14 33.70 33.09 33.84 32.58 41.52 36.53 39.44 44.21 45.07 43.88 41.66 40.92 41.54 42.22 42.01 41.67 41.26 40.87 40.75 40.63 41.23 40.81 40.91 40.48 42.10 42.44 41.99 41.74 41.52 42.15 42.74 43.75 44.37 44.96 45.31 45.44
37.82 36.11 42.61 42.32 41.53 40.45 41.07 40.47 34.35 26.98 29.28 33.80 38.64 33.20 39.16 43.03 42.42 42.32 41.87 40.73 40.34 40.02 40.46 40.27 40.59 40.16 40.15 39.89 39.57 40.14 39.24 38.27 39.79 40.59 40.96 41.41 41.11 40.82 41.09 41.64 42.15 42.92 43.94 44.73
37.49 37.37 45.40 42.03 42.66 41.51 39.31 35.73 40.03 32.78 33.70 30.81 35.01 39.09 43.38 43.93 40.34 39.85 38.56 38.17 37.31 37.73 38.53 38.89 39.78 39.67 38.96 38.96 38.59 38.41 37.79 37.45 37.49 38.33 39.53 39.64 39.85 39.87 39.24 39.98 40.66 40.39 40.86 41.63
40.41 33.56 41.86 41.86 41.41 42.92 39.94 43.15 33.46 33.66 25.18 24.32 31.36 33.60 35.36 40.85 40.48 37.50 36.25 35.66 36.08 36.83 37.03 37.65 37.78 39.02 38.19 38.04 38.38 37.84 37.35 36.11 36.12 36.50 37.32 37.35 37.41 37.97 38.57 39.46 38.73 38.93 39.15 39.09
40.68 37.50 37.13 40.78 38.35 37.03 37.81 35.12 36.00 35.42 32.46 26.05 24.78 30.94 39.87 38.92 38.72 36.07 34.56 34.61 34.86 35.07 35.34 36.74 36.56 36.90 36.76 36.29 36.32 36.16 35.75 34.88 34.08 35.15 35.60 35.72 35.43 35.12 35.54 35.29 36.18 37.15 37.60 37.78
41.70 37.19 31.94 34.54 41.03 42.66 40.49 37.08 37.07 30.11 28.85 31.41 29.92 29.85 42.67 37.50 35.94 34.70 32.64 32.92 33.78 34.05 32.63 34.41 35.74 34.81 34.73 34.64 34.71 34.19 34.64 34.01 33.94 33.71 34.29 34.35 34.48 33.86 33.10 32.89 33.35 34.75 34.87 36.27
40.37 34.80 28.23 29.84 35.05 39.21 36.21 38.06 38.26 37.09 34.31 29.61 26.69 29.42 37.82 34.36 33.85 33.88 33.32 33.89 33.03 31.75 31.97 32.98 34.57 34.13 33.73 33.93 33.74 33.57 33.39 33.22 33.47 32.61 32.85 33.36 33.07 32.73 32.09 31.71 31.76 32.45 32.70 33.22
40.97 34.29 30.99 26.14 29.71 34.58 31.44 34.00 35.78 33.90 28.49 29.20 29.36 30.63 35.98 37.04 35.12 35.26 34.98 33.22 33.11 32.14 30.82 31.93 32.51 33.60 34.15 33.66 33.43 33.28 33.23 33.50 33.50 32.83 31.60 31.47 31.72 31.83 31.20 30.77 30.85 31.19 31.73 31.75
37.23 29.76 31.38 32.05 33.23 33.12 31.79 30.78 31.54 30.11 31.49 26.88 29.77 30.00 33.88 35.86 36.62 34.61 33.66 31.92 31.77 30.83 30.41 30.75 31.08 31.77 33.16 33.46 33.14 33.02 33.01 33.34 32.89 31.72 30.98 30.48 30.80 30.79 30.33 29.36 28.95 29.87 30.79 31.02
35.72 27.66 29.26 25.13 29.41 29.59 27.32 29.88 30.39 30.97 31.31 30.78 30.64 29.46 36.31 32.65 31.50 30.66 30.24 29.78 30.02 31.39 30.25 30.73 31.34 31.67 31.76 32.39 32.96 32.63 32.05 32.39 32.11 29.97 29.20 29.34 28.92 28.90 28.44 27.99 27.21 27.44 29.01 29.89
29.20 27.23 24.46 19.82 26.19 25.73 20.55 25.61 27.93 29.79 31.80 30.63 25.53 28.54 27.90 28.98 28.60 29.49 29.98 29.63 29.11 30.49 30.70 30.48 31.10 31.54 31.91 32.21 32.53 32.05 31.66 31.56 29.82 28.44 28.42 28.10 27.63 27.25 27.20 26.69 25.70 25.15 25.48 27.74
26.83 25.42 25.08 19.46 21.25 11.68 25.12 32.04 31.12 28.14 28.61 29.80 28.48 25.42 26.46 26.71 28.71 29.77 31.19 30.44 30.09 30.58 31.28 31.48 31.79 32.07 32.44 32.53 31.91 31.38 30.16 28.98 27.96 27.30 26.99 27.48 27.08 25.89 26.06 25.15 23.87 23.63 24.36 24.71
29.86 25.96 21.05 16.80 16.64 21.50 24.38 27.62 26.90 24.80 23.69 29.81 27.34 25.61 26.53 27.79 28.27 28.52 32.29 32.07 31.26 31.49 32.02 32.86 32.89 32.33 31.63 30.97 31.02 28.63 27.00 26.66 25.98 25.30 25.46 25.73 25.69 24.23 24.12 22.50 21.84 22.42 22.50 22.43
27.14 28.10 22.88 19.91 13.60 9.96 22.77 27.73 28.59 27.44 17.40 27.99 26.04 24.77 25.14 26.30 19.77 25.11 31.27 31.75 31.41 32.07 32.62 32.56 32.15 31.15 30.28 29.80 28.93 25.08 24.12 23.61 23.09 23.78 23.97 24.14 23.61 22.40 21.70 22.05 21.20 21.72 21.24 20.66
19.15 20.15 17.89 18.21 15.84 19.13 28.46 26.46 28.38 15.30 19.57 28.00 27.27 27.04 26.69 23.91 26.76 29.81 31.55 30.95 32.04 32.10 31.95 31.34 29.99 28.05 27.86 27.16 24.14 21.64 21.48 20.21 21.55 21.33 20.72 19.93 19.98 19.29 19.29 18.97 19.42 18.90 18.03 17.92
19.11 17.11 16.04 16.51 12.30 9.49 26.95 24.89 19.86 26.17 28.74 29.00 28.31 28.69 27.82 28.79 29.31 29.80 30.12 30.18 30.54 29.64 28.70 27.97 25.20 24.31 24.21 23.06 20.40 17.99 17.09 18.83 17.43 15.51 13.97 13.17 12.69 13.30 14.11 12.98 13.67 14.06 13.84 13.03
15.59 21.27 18.49 20.02 19.30 27.61 28.04 27.45 30.55 31.03 28.67 28.79 29.14 30.07 29.56 28.37 28.13 29.02 28.88 29.01 28.08 26.43 24.34 22.77 20.01 18.32 19.14 18.03 16.76 13.63 14.35 13.86 11.91 9.25 7.10 6.97 7.70 8.10 8.65 8.22 8.39 8.96 10.03 10.23
24.14 27.00 21.29 21.12 23.83 25.80 28.18 30.19 30.91 31.21 30.07 30.80 31.00 30.29 29.73 27.54 28.08 27.49 26.56 24.74 23.09 21.71 19.37 18.36 15.92 13.97 12.66 13.69 13.44 11.78 10.88 9.94 6.56 4.32 4.37 5.16 4.61 5.00 5.69 6.80 7.13 6.30 6.33 6.21
25.30 25.51 22.08 21.58 24.87 26.75 27.95 29.32 29.86 30.18 30.85 30.42 30.66 29.56 27.58 26.31 24.98 24.20 21.81 19.44 18.82 17.44 16.08 14.90 12.11 10.67 10.25 10.95 9.48 8.69 8.07 6.42 4.07 3.48 3.64 3.78 4.47 4.36 4.73 5.76 5.55 5.60 6.75 7.24
26.59 23.80 20.92 19.54 26.62 26.36 27.05 30.19 31.10 29.30 29.08 29.27 27.65 24.36 21.89 20.41 19.59 18.56 16.79 16.65 15.00 13.29 12.08 10.16 9.25 8.18 7.51 6.89 6.07 5.99 5.56 4.64 2.29 1.49 2.01 2.55 2.48 2.99 3.82 3.85 4.19 10.01 11.82 13.39
MSLP
1013.63 1013.09 1012.22 1011.29 1010.94 1010.58 1010.33 1009.96 1009.29 1009.19 1009.12 1008.98 1008.88 1008.59 1007.95 1007.15 1005.75 1005.16 1005.14 1005.14 1005.85 1006.76 1007.96 1009.07 1009.83 1010.04 1009.86 1009.66 1009.33 1008.77 1008.20 1008.24 1008.88 1009.40 1009.69 1010.03 1009.99 1010.46 1011.04 1011.35 1011.45 1011.89 1012.81 1013.88
1013.54 1012.36 1011.47 1011.17 1011.52 1011.23 1010.79 1010.38 1009.87 1009.38 1009.16 1009.66 1008.96 1008.20 1007.44 1006.57 1005.56 1005.11 1005.52 1006.05 1006.94 1008.27 1009.42 1010.34 1010.84 1010.86 1010.83 1010.97 1010.77 1010.51 1009.94 1009.10 1008.76 1009.18 1009.99 1010.37 1010.46 1010.53 1010.86 1011.48 1011.91 1012.14 1012.25 1012.91
1011.84 1011.00 1011.30 1011.36 1011.17 1011.11 1010.93 1010.62 1010.16 1010.08 1009.91 1009.51 1008.65 1007.78 1006.18 1005.81 1004.97 1005.14 1006.25 1007.38 1008.78 1010.10 1011.04 1011.80 1012.16 1012.23 1012.27 1012.11 1011.85 1011.20 1010.80 1010.49 1010.53 1010.58 1010.18 1009.92 1010.68 1011.54 1011.59 1011.50 1011.78 1012.43 1012.83 1013.02
1011.63 1011.30 1011.60 1011.62 1011.34 1011.32 1010.87 1010.49 1010.52 1010.38 1010.55 1009.45 1009.30 1006.79 1006.46 1005.08 1005.13 1006.41 1007.96 1009.15 1010.21 1011.23 1012.26 1012.88 1013.12 1013.27 1013.29 1013.07 1012.89 1012.46 1012.05 1011.46 1011.09 1010.93 1011.29 1011.64 1011.52 1011.40 1011.23 1011.68 1011.97 1012.30 1012.65 1012.87
1011.33 1011.54 1012.20 1011.88 1011.17 1011.26 1010.96 1011.29 1011.20 1010.88 1010.45 1009.59 1008.86 1007.32 1005.48 1004.97 1005.41 1006.50 1008.83 1010.75 1011.65 1012.47 1013.15 1013.65 1014.00 1014.38 1014.52 1014.25 1014.01 1013.71 1013.24 1013.12 1012.57 1012.30 1012.00 1011.81 1012.14 1012.19 1011.91 1011.94 1012.13 1012.06 1012.48 1012.79
1011.60 1012.64 1012.16 1011.79 1011.69 1011.78 1011.78 1011.81 1011.39 1011.11 1010.72 1008.76 1007.66 1007.17 1005.55 1005.62 1006.62 1008.52 1010.24 1011.51 1012.74 1013.68 1013.87 1014.29 1014.90 1014.72 1015.12 1015.24 1015.08 1014.67 1014.04 1013.96 1013.24 1013.05 1012.93 1012.51 1012.55 1012.78 1012.81 1012.39 1012.46 1012.37 1012.14 1012.36
1011.02 1011.52 1011.92 1012.58 1012.34 1012.42 1012.31 1012.02 1010.93 1010.11 1009.74 1007.53 1007.98 1007.33 1006.49 1006.66 1007.12 1008.60 1011.02 1012.64 1013.60 1014.34 1014.77 1014.90 1015.50 1015.39 1015.85 1016.04 1015.86 1015.21 1014.32 1014.02 1013.55 1013.41 1013.45 1013.63 1013.81 1013.32 1013.12 1013.24 1013.02 1012.42 1012.64 1012.51
1011.44 1010.51 1011.45 1012.48 1012.34 1012.54 1012.31 1012.09 1012.09 1010.88 1009.94 1008.81 1008.59 1007.30 1006.63 1008.15 1009.41 1010.76 1012.02 1013.60 1014.77 1015.22 1015.70 1015.66 1016.05 1016.09 1016.45 1016.20 1015.70 1015.19 1014.52 1014.40 1014.63 1014.54 1014.48 1014.56 1014.44 1014.29 1013.99 1013.93 1013.74 1013.34 1012.77 1012.75
1011.92 1011.14 1011.14 1012.53 1012.65 1012.93 1012.49 1012.90 1013.12 1012.74 1011.95 1010.97 1008.72 1007.46 1006.96 1008.28 1010.27 1011.87 1013.19 1014.28 1015.23 1015.87 1016.23 1016.21 1016.27 1016.07 1016.46 1016.27 1015.91 1015.55 1015.41 1015.88 1015.72 1015.34 1015.20 1014.99 1015.05 1014.93 1014.82 1014.72 1014.37 1013.83 1013.69 1013.37
1013.21 1012.83 1012.24 1012.89 1013.22 1013.00 1013.24 1013.06 1014.11 1014.20 1012.78 1011.10 1009.20 1007.87 1007.16 1008.38 1010.13 1012.63 1013.84 1014.64 1015.39 1015.67 1016.05 1016.07 1016.26 1016.17 1016.28 1016.72 1016.97 1016.63 1016.68 1016.62 1016.80 1016.57 1015.98 1015.53 1015.51 1015.48 1015.17 1014.97 1014.63 1014.55 1014.19 1013.91
1014.75 1014.67 1012.60 1013.37 1012.77 1012.81 1013.56 1013.58 1013.56 1013.86 1013.73 1012.36 1010.89 1009.15 1009.48 1010.41 1011.55 1013.30 1014.63 1015.36 1015.75 1016.08 1016.54 1017.03 1017.09 1017.02 1016.82 1016.80 1017.11 1017.49 1017.69 1017.76 1017.42 1016.67 1016.61 1016.48 1016.12 1015.99 1015.80 1015.53 1015.13 1014.86 1014.90 1014.29
1015.28 1015.30 1014.68 1013.23 1013.24 1013.39 1013.70 1013.89 1014.15 1014.12 1013.75 1013.13 1011.88 1010.76 1010.76 1012.47 1014.05 1014.60 1015.30 1016.07 1016.48 1016.67 1016.82 1017.14 1017.49 1017.41 1017.42 1017.40 1017.58 1017.52 1017.58 1018.07 1018.39 1016.87 1016.60 1016.71 1016.81 1016.37 1016.01 1015.79 1015.74 1015.47 1014.84 1014.40
1016.36 1016.20 1016.11 1014.49 1013.52 1013.77 1014.37 1014.18 1014.52 1014.61 1014.77 1013.53 1013.03 1011.81 1013.25 1014.37 1015.47 1015.96 1016.45 1016.75 1017.07 1017.28 1017.13 1017.13 1017.39 1017.39 1017.07 1017.49 1017.79 1017.38 1017.39 1017.75 1018.60 1017.89 1016.63 1016.74 1016.99 1016.80 1016.43 1016.24 1016.20 1015.99 1015.55 1014.70
1017.27 1017.11 1016.81 1016.22 1015.04 1014.99 1015.67 1015.75 1016.10 1015.84 1014.76 1013.61 1013.09 1012.76 1012.56 1013.79 1014.76 1015.39 1015.72 1016.08 1017.17 1017.18 1017.03 1017.35 1017.67 1017.45 1017.24 1017.32 1017.57 1017.47 1017.42 1017.32 1017.48 1017.93 1016.97 1016.70 1016.97 1016.75 1016.65 1016.55 1016.29 1015.93 1015.64 1015.01
1017.83 1017.38 1017.36 1016.91 1016.40 1016.05 1015.88 1015.99 1015.39 1014.99 1014.61 1014.20 1012.96 1013.13 1013.09 1013.56 1014.35 1014.89 1015.20 1015.66 1016.46 1016.80 1016.92 1017.26 1017.56 1017.52 1017.52 1017.62 1018.19 1017.70 1017.54 1017.87 1017.93 1017.57 1017.30 1016.74 1016.79 1016.73 1016.54 1016.48 1016.27 1016.01 1015.46 1014.77
1018.02 1017.92 1017.95 1017.30 1017.21 1016.96 1016.32 1015.31 1014.52 1014.62 1014.20 1013.73 1013.72 1013.22 1013.50 1014.27 1015.26 1015.66 1016.02 1016.45 1016.56 1016.56 1016.80 1017.13 1017.34 1017.59 1017.77 1017.94 1017.80 1017.90 1018.05 1017.78 1017.70 1017.92 1017.49 1017.06 1016.97 1016.73 1016.48 1016.29 1016.02 1015.67 1015.15 1014.49
1018.96 1018.74 1018.68 1017.50 1017.73 1017.15 1015.64 1014.13 1014.33 1013.78 1013.84 1014.04 1014.07 1014.52 1014.94 1015.28 1015.88 1016.06 1016.29 1016.56 1016.74 1016.67 1016.82 1017.09 1017.22 1017.35 1017.39 1017.40 1017.50 1017.53 1017.67 1017.72 1017.98 1017.86 1017.45 1017.15 1016.94 1016.64 1016.28 1015.96 1015.53 1014.97 1014.31 1013.61
1018.96 1019.11 1019.53 1018.20 1018.49 1016.74 1013.87 1014.02 1013.92 1013.75 1013.96 1014.53 1015.18 1015.84 1016.23 1016.39 1016.44 1016.51 1016.52 1016.49 1016.53 1016.62 1016.61 1016.76 1017.00 1017.26 1017.35 1017.47 1017.57 1017.65 1017.80 1017.86 1017.75 1017.47 1017.27 1017.03 1016.73 1016.31 1015.89 1015.58 1015.18 1014.68 1014.17 1013.45
1018.66 1019.01 1019.10 1018.64 1017.47 1015.49 1014.88 1014.77 1014.59 1014.56 1014.44 1014.83 1015.63 1016.49 1016.72 1016.88 1016.70 1016.00 1015.68 1016.04 1016.20 1016.38 1016.48 1016.54 1016.80 1017.31 1017.49 1017.57 1017.61 1017.80 1017.88 1017.81 1017.62 1017.38 1017.06 1016.68 1016.31 1015.87 1015.44 1014.93 1014.54 1014.04 1013.60 1012.87
1018.40 1018.61 1018.91 1018.38 1017.36 1015.83 1015.11 1015.16 1015.61 1015.73 1015.22 1015.67 1016.31 1016.88 1016.97 1016.95 1016.49 1015.72 1015.76 1016.15 1016.25 1016.37 1016.42 1016.55 1016.96 1017.42 1017.48 1017.56 1017.73 1017.99 1017.81 1017.68 1017.44 1017.16 1016.74 1016.34 1016.02 1015.60 1014.99 1014.48 1013.88 1013.33 1013.02 1012.24
1018.52 1018.61 1018.20 1017.67 1017.02 1015.85 1015.24 1015.76 1016.05 1016.11 1015.60 1015.88 1016.49 1016.66 1016.59 1016.48 1016.28 1016.02 1015.99 1016.07 1016.23 1016.35 1016.55 1017.08 1017.42 1017.61 1017.78 1018.11 1018.38 1018.17 1017.92 1017.75 1017.45 1017.15 1016.83 1016.49 1016.15 1015.64 1014.98 1014.23 1013.56 1012.95 1012.39 1011.74
1017.90 1017.80 1017.50 1017.75 1017.22 1016.20 1015.74 1016.06 1016.02 1015.20 1015.52 1015.90 1015.93 1015.94 1015.94 1015.83 1015.83 1015.88 1015.96 1016.02 1016.23 1016.79 1017.25 1017.65 1018.07 1018.21 1018.44 1018.75 1018.86 1018.49 1018.14 1017.95 1017.76 1017.50 1017.02 1016.64 1016.38 1015.94 1015.24 1014.53 1013.54 1012.93 1012.15 1011.13
1017.98 1016.93 1016.81 1016.77 1015.90 1015.30 1015.58 1015.23 1015.09 1015.13 1015.14 1015.11 1015.35 1015.30 1015.43 1015.51 1015.60 1015.79 1016.04 1016.41 1016.93 1017.53 1018.15 1018.75 1019.13 1019.04 1019.02 1019.41 1019.56 1019.10 1018.68 1018.61 1018.21 1017.70 1017.12 1016.68 1016.21 1015.62 1015.02 1014.18 1013.21 1012.39 1011.58 1010.44
1016.49 1016.25 1016.16 1016.19 1015.71 1014.62 1014.74 1014.52 1014.35 1014.38 1014.44 1014.47 1014.78 1014.93 1015.28 1015.56 1015.74 1016.08 1016.78 1017.45 1018.08 1018.66 1019.13 1019.59 1019.82 1019.74 1019.53 1019.75 1019.80 1019.76 1019.37 1019.07 1018.61 1017.83 1017.17 1016.52 1015.76 1014.91 1014.36 1013.61 1012.76 1011.77 1010.95 1009.89
1015.29 1015.27 1014.93 1014.94 1014.47 1014.26 1014.06 1013.91 1013.84 1013.93 1014.08 1014.25 1014.60 1015.02 1015.60 1016.12 1016.52 1017.05 1017.75 1018.48 1019.01 1019.46 1019.89 1020.29 1020.44 1020.25 1019.92 1019.95 1019.83 1019.80 1019.48 1019.09 1018.38 1017.65 1016.83 1015.98 1015.14 1014.17 1013.21 1012.55 1011.79 1010.91 1010.12 1009.41
1014.20 1013.66 1014.11 1013.16 1013.10 1013.08 1012.73 1012.96 1013.23 1013.67 1013.88 1014.24 1014.77 1015.68 1016.51 1017.18 1017.66 1018.16 1018.76 1019.29 1019.81 1020.16 1020.54 1020.70 1020.78 1020.66 1020.31 1020.08 1019.77 1019.52 1019.31 1018.92 1018.17 1017.23 1016.32 1015.44 1014.56 1013.53 1012.51 1011.39 1010.16 1009.67 1008.40 1007.35
Wind_Speed
8 9 10 16 16 19 20 20 21 20 19 21 18 17 19 19 23 19 15 10 7 11 15 17 18 18 18 18 16 14 8 5 4 6 6 7 8 7 7 7 10 12 11 12
6 12 16 16 7 14 16 19 20 19 13 1 14 19 21 19 20 14 10 8 13 11 15 16 17 18 19 18 18 18 15 7 3 5 4 5 5 6 7 6 8 10 11 13
17 14 4 10 14 16 17 17 19 19 17 13 13 15 14 10 16 9 4 15 15 15 15 16 18 19 17 18 17 16 15 12 10 7 3 3 3 4 5 5 6 7 10 10
12 9 8 11 15 14 16 13 9 11 8 11 7 12 12 13 8 15 13 13 14 14 14 15 17 20 21 19 16 17 17 16 11 9 5 7 3 5 4 6 6 6 9 11
1 5 3 8 8 4 8 3 7 8 11 14 11 15 9 16 11 7 12 10 12 12 12 13 14 15 16 16 16 16 17 16 15 12 7 6 7 6 6 3 6 7 7 10
17 3 3 9 1 7 3 7 12 11 8 11 7 8 4 4 3 8 9 10 10 9 11 13 13 14 14 14 14 13 16 16 16 14 14 13 9 9 8 7 5 5 5 6
4 9 4 3 7 5 5 9 8 9 11 19 11 8 11 13 3 7 10 8 8 9 10 12 12 12 12 13 12 10 15 18 17 17 17 14 12 11 9 9 7 5 5 5
14 17 5 9 5 8 12 10 8 14 16 16 14 12 10 6 10 10 11 10 9 10 9 10 11 12 12 13 14 15 16 16 16 14 14 13 14 8 7 9 8 7 6 6
11 12 7 3 2 3 3 6 7 6 8 9 14 21 24 14 12 10 10 9 8 8 8 9 10 11 12 14 16 16 17 16 15 14 11 12 12 12 10 10 9 6 8 7
3 13 4 4 1 8 8 6 6 5 5 15 17 23 17 15 10 9 7 7 7 9 9 11 11 12 11 13 14 15 14 14 13 14 12 11 11 11 11 9 11 11 9 8
3 4 17 9 9 14 9 8 11 12 10 13 17 13 8 10 7 8 6 5 7 8 9 9 9 10 10 10 10 11 12 12 11 11 11 11 10 11 10 10 11 11 11 10
9 5 10 22 19 17 13 18 18 8 6 10 13 14 14 7 3 4 4 2 3 4 5 5 5 6 8 9 8 9 9 10 11 10 10 9 10 10 10 11 11 11 11 11
4 3 6 10 13 5 5 9 10 13 5 17 16 12 8 5 2 2 5 5 4 1 3 3 5 6 7 7 7 8 9 8 8 10 8 7 7 9 9 10 10 10 10 10
0 7 14 13 17 18 14 13 7 6 6 9 11 21 23 14 11 6 9 6 7 4 1 4 6 8 8 9 10 10 10 9 8 10 8 7 7 8 7 8 9 10 10 10
5 11 15 18 21 22 21 21 25 26 25 25 25 23 22 21 17 12 8 3 4 4 3 4 5 6 8 8 9 10 11 10 10 12 11 10 10 10 9 8 8 9 8 8
9 12 12 18 20 20 22 25 26 23 24 26 25 27 22 9 4 2 2 4 7 7 5 5 6 7 8 9 9 9 10 9 9 11 12 12 10 10 10 9 10 10 11 10
8 6 7 19 15 18 18 22 23 25 24 25 24 12 8 5 3 4 6 7 8 10 7 8 8 9 10 11 10 11 11 9 7 9 10 10 10 11 11 10 12 12 13 13
13 12 9 15 12 21 13 13 14 16 14 11 7 2 2 2 6 8 8 10 11 11 12 11 9 11 11 11 11 10 8 8 10 11 11 11 11 12 12 12 13 13 12 13
17 15 9 10 14 18 25 20 18 15 16 8 6 5 2 8 11 13 9 6 11 11 11 11 8 10 12 12 9 8 8 10 11 12 13 13 13 14 14 14 14 15 13 14
6 14 12 11 15 18 15 1 1 3 12 7 6 3 7 10 11 12 12 11 11 11 10 8 8 10 11 11 11 10 12 12 13 13 14 14 15 15 16 16 17 16 15 16
4 5 15 14 16 12 5 5 3 8 8 8 5 8 11 12 11 14 12 13 10 9 8 7 9 11 11 11 11 13 14 15 15 14 15 15 15 16 17 18 17 16 16 17
9 8 6 5 7 13 4 5 7 3 3 5 11 14 14 13 12 12 13 11 9 7 8 9 10 12 12 12 11 14 16 16 16 16 17 17 16 14 14 18 17 18 17 19
8 11 7 8 6 3 10 10 10 11 12 15 15 14 12 12 12 12 11 9 7 8 9 9 8 12 13 10 10 14 16 16 17 17 18 17 17 16 15 17 17 15 16 16
16 16 13 12 16 24 19 19 19 16 17 16 14 12 10 12 10 9 6 6 7 7 7 7 9 11 13 11 12 12 15 15 15 17 17 16 16 17 16 13 13 13 13 14
12 5 12 14 21 18 20 18 19 18 17 16 11 8 9 6 7 5 5 5 6 7 8 7 9 11 14 13 13 13 14 14 16 16 16 16 14 16 15 14 13 13 15 16
16 21 13 15 19 16 18 16 14 13 15 12 8 6 3 2 4 3 4 5 6 8 9 9 10 12 13 14 14 14 13 13 15 16 14 13 14 13 14 14 14 23 31 33
Wind_Direction
195 219 220 247 240 254 276 286 284 283 292 297 296 296 296 286 289 282 286 304 322 51 56 39 28 22 19 19 11 358 342 299 241 230 225 232 230 217 227 232 215 208 199 201
187 235 251 267 302 287 281 281 281 288 288 296 284 299 289 285 270 293 315 336 69 54 44 34 29 29 28 23 16 8 357 341 216 229 239 260 253 246 236 220 238 224 211 197
246 267 328 268 251 261 268 272 280 285 310 283 292 281 299 273 268 290 31 94 71 53 39 32 27 28 28 29 23 29 24 18 6 339 290 200 263 1 306 252 233 229 237 212
260 275 249 246 253 259 272 275 290 283 282 295 24 298 311 284 252 107 77 62 59 55 50 38 31 28 25 27 24 29 27 31 30 20 343 327 298 273 240 252 261 234 223 233
12 157 189 226 238 220 266 337 277 271 270 285 256 269 271 281 260 134 84 64 59 58 56 51 47 41 35 31 28 29 38 34 30 29 23 9 338 310 307 337 285 235 231 229
263 95 233 249 273 224 357 282 262 256 264 260 281 255 300 35 82 116 94 72 64 59 60 52 45 46 39 33 32 32 40 40 38 36 24 18 359 336 323 311 292 284 237 220
285 249 183 267 265 208 225 260 293 273 253 265 289 277 258 303 287 144 130 105 79 66 59 55 47 46 42 33 35 36 38 36 31 32 32 23 5 351 333 327 311 306 287 256
289 294 191 153 249 306 292 271 270 287 281 292 314 276 267 64 105 99 102 98 80 56 47 47 39 36 30 30 29 29 33 35 30 30 29 27 20 5 350 341 328 324 314 299
308 271 328 222 263 286 62 242 349 326 296 282 267 271 277 198 128 119 118 106 82 67 41 38 33 37 23 23 26 27 30 24 23 26 28 28 23 19 11 352 340 334 322 312
333 298 268 80 256 238 239 315 296 212 260 268 271 285 280 280 165 140 107 77 54 46 33 27 24 29 30 23 14 23 28 26 18 13 19 23 21 15 13 7 8 351 330 315
9 237 276 298 256 267 258 251 229 263 259 270 272 264 346 1 121 140 112 73 48 36 21 13 15 11 28 35 26 16 15 16 13 17 12 7 12 11 8 7 5 358 341 334
292 271 261 277 289 296 281 266 269 257 233 237 264 261 322 26 64 94 115 89 23 37 34 14 7 23 22 18 17 16 11 8 357 10 12 8 0 1 3 2 356 349 348 340
47 214 287 292 286 174 244 289 284 284 297 257 274 284 54 82 317 293 280 276 229 243 23 19 352 8 16 8 4 8 4 2 344 347 3 360 360 354 354 349 343 339 337 337
10 258 248 257 278 306 290 288 281 254 265 287 267 289 289 257 238 219 234 209 256 225 303 346 335 340 348 348 351 349 346 347 348 334 346 343 341 340 344 333 329 325 324 324
250 256 265 264 270 279 285 282 275 271 272 270 283 288 290 296 291 310 342 3 279 254 299 331 329 331 324 318 318 325 329 325 330 333 330 331 326 325 321 312 313 307 300 302
260 272 286 278 274 273 274 269 267 274 276 275 278 276 281 22 44 246 240 274 288 263 300 324 329 324 317 311 301 306 300 307 325 317 310 315 317 315 311 308 308 306 300 294
270 263 262 265 280 288 269 257 266 265 264 268 272 307 356 339 294 303 296 287 308 290 283 302 314 327 324 324 317 297 302 310 304 294 293 295 300 297 299 302 306 306 308 304
253 256 259 272 284 259 268 285 286 285 292 296 308 118 120 353 327 313 291 287 293 294 278 277 302 311 319 320 313 313 305 298 295 291 291 290 285 287 287 293 294 299 300 299
234 251 259 252 250 278 290 286 289 295 291 313 179 169 15 338 320 295 294 341 318 298 299 297 295 310 315 318 322 326 311 301 297 294 291 290 288 287 284 281 283 287 290 290
242 238 240 245 258 265 283 38 18 299 276 119 110 198 294 307 288 293 327 324 299 290 303 320 334 312 314 328 336 329 310 308 303 300 295 295 294 290 285 283 284 284 283 282
202 236 232 244 255 267 264 92 135 242 299 151 184 291 292 281 278 297 297 290 286 297 304 321 316 314 320 336 337 314 309 306 309 310 306 303 299 296 294 292 288 287 285 283
246 248 216 220 262 269 83 128 227 332 179 249 292 297 290 286 283 284 284 286 300 325 322 325 323 313 322 331 333 311 306 316 317 314 308 307 305 300 296 293 291 287 284 279
241 236 256 231 254 251 190 246 260 276 277 289 287 292 292 277 275 279 289 305 311 323 336 337 328 314 313 324 320 306 309 318 314 310 306 305 303 299 294 291 290 288 283 278
253 249 246 255 248 258 267 266 268 275 275 283 285 289 279 270 281 285 295 307 310 321 327 331 318 305 304 316 311 306 309 310 306 301 300 301 297 296 291 285 283 283 283 282
243 247 240 251 257 268 263 264 266 270 275 282 284 276 266 260 261 286 300 308 307 317 319 320 310 302 301 310 308 308 306 307 302 300 299 297 292 291 292 284 282 278 273 270
238 241 245 251 258 263 271 276 279 283 281 284 277 197 186 206 264 284 280 302 310 310 316 307 301 299 300 305 303 305 305 303 304 301 298 297 297 294 291 290 286 278 283 284